Temp
-12 -12 -12 -11 -12 -12 -11 -11 -11 -11 -12 -12 -12 -12 -12 -11 -11 -11 -11 -11 -11 -11 -12 -13 -13 -14 -16 -16 -17 -17 -17 -17 -17 -17 -17 -16 -16 -16 -16 -16 -15 -15 -15 -15 -14
-12 -12 -12 -12 -12 -12 -12 -12 -12 -11 -12 -12 -12 -12 -12 -12 -12 -11 -11 -11 -11 -12 -12 -12 -13 -15 -16 -16 -17 -17 -17 -17 -17 -17 -16 -16 -16 -16 -16 -15 -15 -15 -14 -14 -14
-12 -12 -12 -12 -12 -12 -12 -12 -12 -12 -12 -12 -12 -12 -12 -12 -12 -12 -12 -12 -12 -12 -13 -13 -14 -15 -16 -17 -17 -18 -17 -17 -17 -17 -16 -16 -16 -16 -16 -15 -15 -15 -14 -14 -14
-12 -12 -12 -12 -12 -12 -12 -12 -12 -13 -12 -12 -12 -12 -12 -12 -12 -12 -12 -12 -12 -12 -13 -13 -14 -15 -15 -16 -17 -18 -17 -17 -17 -16 -16 -16 -16 -15 -15 -15 -15 -15 -14 -14 -14
-13 -13 -13 -13 -12 -12 -13 -13 -13 -13 -13 -13 -13 -12 -12 -12 -12 -12 -12 -12 -12 -12 -13 -13 -14 -15 -16 -16 -17 -17 -17 -17 -17 -17 -17 -16 -16 -15 -15 -15 -14 -14 -14 -13 -13
-13 -13 -13 -13 -13 -13 -13 -12 -13 -13 -13 -14 -14 -13 -13 -12 -12 -12 -12 -12 -12 -13 -13 -13 -14 -15 -15 -16 -16 -17 -17 -17 -17 -17 -17 -17 -16 -16 -15 -15 -14 -13 -13 -13 -12
-12 -12 -13 -13 -13 -13 -13 -13 -13 -12 -13 -14 -14 -13 -13 -13 -12 -12 -13 -13 -13 -13 -13 -13 -14 -15 -16 -16 -16 -16 -17 -17 -17 -17 -17 -16 -16 -16 -15 -14 -14 -13 -13 -12 -12
-12 -12 -12 -13 -13 -13 -13 -13 -12 -12 -13 -14 -14 -14 -13 -13 -13 -12 -13 -13 -13 -13 -13 -13 -14 -15 -15 -16 -16 -16 -17 -17 -17 -17 -17 -16 -16 -16 -15 -15 -14 -13 -12 -13 -13
-13 -13 -13 -13 -13 -13 -13 -13 -13 -12 -13 -13 -14 -14 -13 -13 -13 -13 -13 -13 -13 -13 -13 -13 -14 -15 -15 -16 -16 -17 -17 -18 -17 -17 -16 -16 -17 -16 -16 -15 -15 -15 -14 -13 -13
-14 -14 -13 -13 -13 -13 -13 -13 -12 -12 -13 -13 -13 -14 -14 -14 -13 -13 -13 -13 -13 -13 -13 -13 -14 -14 -15 -15 -17 -17 -17 -17 -17 -16 -16 -17 -17 -17 -16 -16 -16 -16 -16 -16 -15
-14 -14 -14 -13 -13 -13 -13 -13 -12 -12 -13 -13 -13 -14 -14 -14 -13 -13 -13 -13 -13 -13 -13 -14 -14 -14 -15 -15 -16 -16 -17 -17 -18 -16 -16 -16 -17 -17 -16 -17 -16 -16 -16 -16 -17
-14 -14 -14 -14 -13 -13 -14 -13 -13 -12 -12 -13 -13 -14 -14 -14 -14 -14 -14 -13 -14 -14 -13 -14 -14 -14 -14 -14 -15 -16 -16 -17 -16 -16 -16 -17 -17 -16 -17 -16 -16 -16 -16 -16 -16
-15 -15 -14 -14 -14 -14 -14 -13 -14 -13 -12 -13 -13 -13 -14 -13 -14 -14 -14 -13 -14 -13 -14 -14 -14 -14 -14 -14 -14 -15 -15 -15 -15 -15 -16 -16 -16 -17 -17 -17 -16 -16 -16 -16 -16
-16 -16 -15 -15 -14 -14 -14 -13 -14 -13 -12 -12 -14 -12 -14 -13 -13 -14 -14 -13 -13 -14 -13 -14 -14 -14 -14 -14 -14 -14 -15 -15 -15 -15 -16 -16 -15 -16 -16 -17 -16 -16 -16 -16 -16
-17 -17 -17 -16 -15 -15 -15 -14 -14 -14 -13 -13 -13 -13 -13 -14 -13 -14 -14 -14 -14 -14 -14 -14 -15 -14 -14 -14 -15 -15 -15 -15 -15 -15 -16 -16 -16 -16 -16 -16 -16 -16 -16 -15 -15
-17 -17 -17 -17 -16 -17 -16 -15 -14 -15 -13 -13 -13 -13 -13 -13 -13 -14 -13 -14 -14 -14 -13 -14 -14 -15 -14 -14 -15 -15 -15 -15 -15 -15 -16 -16 -16 -16 -16 -16 -16 -16 -16 -16 -15
-18 -18 -18 -17 -17 -18 -17 -16 -16 -14 -13 -14 -14 -14 -14 -13 -13 -13 -13 -13 -13 -13 -13 -14 -15 -15 -15 -15 -15 -15 -15 -16 -15 -15 -16 -15 -15 -16 -16 -16 -16 -16 -16 -16 -16
-19 -18 -18 -18 -19 -19 -18 -18 -15 -13 -14 -14 -14 -14 -14 -14 -13 -13 -14 -13 -14 -14 -14 -14 -14 -15 -15 -15 -15 -15 -16 -17 -17 -16 -16 -15 -15 -15 -15 -15 -15 -15 -16 -16 -16
-20 -19 -18 -18 -19 -19 -19 -17 -14 -14 -14 -15 -15 -15 -14 -15 -14 -14 -13 -13 -14 -14 -14 -14 -14 -15 -15 -15 -15 -15 -16 -16 -16 -16 -15 -15 -15 -15 -15 -15 -15 -15 -15 -15 -15
-22 -20 -19 -19 -20 -20 -20 -16 -15 -14 -15 -16 -15 -15 -15 -15 -15 -14 -14 -13 -14 -14 -15 -15 -15 -15 -15 -16 -15 -15 -16 -16 -15 -15 -15 -16 -15 -15 -15 -15 -15 -15 -15 -15 -15
-24 -22 -20 -20 -21 -20 -18 -15 -15 -15 -15 -16 -16 -15 -15 -16 -15 -16 -15 -14 -14 -14 -15 -15 -15 -15 -15 -15 -16 -16 -16 -16 -16 -16 -16 -16 -16 -15 -16 -15 -15 -15 -15 -15 -16
-24 -23 -22 -22 -22 -20 -17 -15 -15 -15 -15 -16 -16 -16 -15 -16 -16 -16 -16 -15 -15 -15 -15 -14 -15 -15 -16 -15 -16 -16 -16 -16 -16 -17 -16 -16 -15 -16 -16 -16 -16 -15 -16 -15 -15
-23 -23 -24 -23 -23 -19 -17 -17 -17 -16 -16 -16 -16 -17 -16 -16 -17 -17 -17 -17 -17 -16 -15 -15 -15 -15 -16 -15 -15 -15 -15 -16 -16 -17 -16 -16 -15 -16 -16 -16 -16 -16 -15 -15 -16
-23 -24 -25 -23 -22 -19 -18 -17 -17 -17 -17 -16 -16 -18 -17 -16 -16 -16 -18 -16 -17 -16 -16 -16 -16 -15 -15 -16 -17 -16 -16 -16 -17 -17 -16 -16 -16 -17 -17 -16 -16 -16 -16 -16 -16
-23 -22 -22 -22 -21 -19 -19 -17 -17 -17 -17 -17 -16 -17 -18 -17 -16 -17 -17 -17 -18 -17 -16 -16 -15 -15 -15 -16 -17 -16 -16 -16 -16 -16 -17 -16 -16 -17 -17 -16 -16 -16 -15 -15 -15
-23 -22 -22 -22 -21 -21 -19 -17 -17 -17 -18 -17 -16 -17 -18 -18 -17 -17 -18 -18 -18 -18 -17 -16 -16 -15 -15 -15 -16 -16 -16 -16 -16 -16 -16 -16 -16 -16 -16 -15 -15 -15 -15 -15 -15
-22 -22 -23 -23 -22 -22 -20 -17 -16 -17 -18 -18 -18 -18 -18 -19 -19 -18 -18 -18 -18 -18 -17 -17 -16 -16 -15 -16 -16 -15 -15 -16 -17 -17 -16 -16 -16 -16 -16 -15 -15 -15 -15 -15 -15
Height
5824 5826 5827 5826 5827 5829 5830 5831 5832 5831 5832 5831 5829 5828 5825 5823 5820 5816 5813 5810 5805 5801 5796 5790 5784 5779 5776 5774 5773 5773 5775 5775 5774 5775 5775 5774 5775 5775 5777 5777 5776 5777 5779 5781 5782
5816 5818 5819 5820 5821 5821 5822 5824 5825 5826 5826 5825 5824 5823 5821 5818 5815 5812 5809 5806 5801 5797 5793 5787 5782 5777 5775 5773 5772 5772 5774 5774 5773 5773 5774 5774 5774 5775 5775 5775 5775 5775 5776 5777 5779
5809 5809 5810 5812 5813 5816 5815 5816 5817 5819 5819 5818 5818 5817 5816 5813 5811 5808 5805 5802 5798 5794 5790 5785 5779 5777 5774 5772 5771 5771 5772 5772 5771 5771 5772 5772 5772 5772 5772 5773 5773 5773 5773 5774 5775
5799 5801 5802 5804 5806 5807 5808 5809 5810 5811 5812 5813 5813 5811 5810 5808 5808 5803 5801 5798 5795 5791 5787 5782 5778 5776 5773 5772 5771 5770 5771 5770 5770 5770 5770 5770 5769 5769 5770 5768 5769 5769 5769 5771 5771
5790 5792 5793 5795 5797 5799 5801 5802 5803 5804 5804 5806 5806 5806 5805 5802 5802 5799 5797 5794 5791 5788 5784 5780 5777 5774 5772 5771 5771 5768 5768 5768 5768 5768 5769 5769 5768 5767 5765 5765 5764 5765 5765 5766 5767
5779 5782 5784 5786 5788 5791 5793 5795 5796 5796 5797 5798 5800 5800 5800 5797 5796 5795 5792 5790 5787 5784 5782 5778 5775 5772 5770 5770 5770 5768 5767 5767 5768 5768 5769 5768 5766 5764 5763 5762 5760 5760 5760 5761 5761
5768 5770 5775 5777 5779 5782 5784 5786 5787 5789 5790 5790 5793 5793 5794 5792 5791 5790 5788 5786 5784 5781 5779 5776 5773 5769 5768 5768 5768 5767 5766 5766 5767 5767 5768 5766 5764 5763 5762 5758 5756 5756 5755 5756 5756
5756 5759 5762 5766 5770 5772 5775 5777 5778 5781 5782 5783 5784 5786 5788 5786 5786 5786 5784 5782 5780 5778 5777 5773 5771 5767 5766 5766 5766 5766 5765 5767 5764 5765 5766 5766 5766 5761 5760 5757 5754 5752 5751 5752 5752
5743 5746 5750 5754 5758 5763 5766 5768 5770 5773 5775 5776 5777 5778 5781 5781 5781 5781 5780 5778 5776 5775 5774 5771 5770 5766 5764 5764 5764 5764 5769 5764 5763 5762 5765 5764 5762 5761 5759 5758 5754 5752 5748 5748 5750
5729 5733 5737 5741 5746 5751 5754 5759 5762 5764 5767 5768 5770 5772 5774 5775 5775 5775 5775 5773 5773 5772 5772 5769 5768 5765 5763 5764 5765 5765 5763 5761 5762 5761 5761 5762 5762 5761 5760 5758 5756 5754 5750 5748 5746
5716 5720 5726 5729 5734 5737 5742 5747 5753 5756 5758 5760 5761 5763 5765 5767 5768 5770 5770 5769 5769 5768 5768 5767 5765 5762 5761 5762 5762 5760 5760 5760 5760 5758 5759 5760 5761 5760 5760 5759 5757 5756 5755 5753 5752
5702 5706 5712 5718 5723 5727 5729 5734 5740 5745 5748 5751 5752 5756 5757 5758 5761 5763 5764 5765 5764 5764 5764 5764 5763 5760 5759 5759 5759 5758 5757 5758 5757 5758 5760 5760 5761 5761 5760 5760 5759 5758 5757 5756 5756
5687 5693 5698 5704 5709 5714 5718 5723 5727 5731 5735 5744 5743 5747 5748 5747 5753 5756 5758 5759 5759 5759 5760 5760 5760 5758 5757 5757 5757 5756 5756 5757 5758 5758 5759 5760 5762 5762 5761 5761 5760 5760 5759 5759 5759
5672 5677 5684 5690 5695 5701 5706 5712 5715 5719 5724 5732 5731 5735 5739 5739 5745 5748 5752 5754 5753 5755 5755 5756 5756 5755 5755 5755 5756 5756 5756 5758 5759 5760 5764 5761 5766 5763 5761 5761 5761 5760 5761 5760 5760
5654 5662 5667 5673 5682 5686 5692 5698 5703 5709 5713 5719 5723 5727 5731 5732 5742 5742 5746 5747 5749 5750 5752 5753 5752 5752 5753 5754 5754 5756 5755 5757 5758 5759 5760 5760 5762 5764 5761 5761 5760 5760 5759 5760 5761
5634 5645 5651 5660 5667 5671 5677 5684 5690 5699 5700 5707 5713 5717 5722 5725 5731 5734 5737 5741 5743 5744 5746 5747 5748 5749 5750 5751 5752 5753 5753 5755 5756 5757 5758 5758 5760 5763 5761 5760 5760 5759 5758 5758 5758
5610 5624 5635 5644 5652 5655 5663 5669 5676 5683 5691 5700 5705 5706 5711 5716 5722 5726 5730 5735 5737 5740 5742 5744 5744 5744 5746 5748 5750 5751 5752 5754 5755 5755 5757 5756 5757 5759 5757 5757 5757 5757 5756 5755 5755
5585 5599 5615 5628 5634 5639 5646 5653 5660 5676 5682 5689 5693 5697 5702 5709 5713 5718 5722 5726 5729 5734 5736 5739 5740 5742 5744 5746 5747 5748 5750 5752 5752 5753 5754 5752 5754 5755 5754 5754 5754 5753 5753 5753 5753
5559 5574 5593 5610 5616 5622 5629 5634 5656 5663 5672 5680 5684 5687 5693 5699 5706 5710 5716 5722 5724 5729 5732 5734 5736 5737 5738 5740 5743 5744 5745 5748 5748 5748 5749 5749 5750 5750 5749 5748 5749 5749 5750 5749 5750
5540 5551 5571 5588 5595 5601 5610 5626 5641 5651 5661 5668 5672 5679 5684 5690 5696 5702 5708 5714 5717 5721 5723 5728 5730 5731 5733 5735 5736 5739 5741 5743 5743 5744 5744 5745 5747 5747 5745 5743 5743 5744 5745 5745 5745
5526 5533 5553 5566 5570 5576 5590 5621 5629 5636 5648 5657 5661 5668 5675 5680 5688 5693 5701 5708 5712 5715 5717 5720 5724 5726 5728 5728 5731 5734 5735 5737 5738 5739 5739 5740 5743 5742 5740 5740 5739 5740 5740 5740 5741
5514 5520 5536 5541 5547 5560 5589 5611 5617 5625 5635 5647 5652 5658 5665 5672 5679 5685 5692 5701 5705 5709 5711 5716 5717 5719 5722 5722 5724 5726 5728 5729 5731 5734 5733 5733 5736 5735 5736 5735 5735 5735 5735 5735 5735
5501 5508 5516 5522 5529 5551 5589 5589 5601 5612 5624 5637 5644 5649 5655 5662 5669 5676 5684 5691 5696 5701 5704 5708 5709 5712 5715 5718 5719 5720 5724 5724 5726 5726 5725 5727 5729 5727 5728 5728 5729 5729 5730 5730 5729
5489 5492 5500 5506 5527 5551 5558 5575 5587 5599 5612 5622 5633 5640 5645 5653 5659 5666 5673 5679 5688 5693 5697 5700 5702 5706 5710 5713 5713 5714 5717 5719 5720 5718 5720 5720 5723 5724 5722 5722 5724 5724 5724 5724 5724
5474 5483 5494 5499 5513 5531 5546 5565 5573 5582 5600 5612 5622 5631 5637 5644 5650 5656 5663 5670 5677 5685 5689 5691 5694 5701 5704 5705 5705 5709 5710 5712 5712 5714 5713 5716 5716 5719 5717 5716 5717 5717 5717 5717 5717
5463 5475 5482 5494 5513 5522 5528 5541 5559 5575 5591 5604 5613 5624 5631 5637 5641 5647 5654 5662 5668 5676 5680 5683 5687 5694 5696 5699 5700 5702 5704 5705 5706 5707 5708 5709 5710 5712 5712 5711 5711 5711 5711 5710 5709
5454 5465 5475 5484 5492 5499 5513 5539 5553 5564 5579 5592 5604 5617 5624 5631 5633 5639 5647 5654 5659 5665 5671 5675 5680 5686 5690 5692 5693 5696 5699 5700 5701 5701 5702 5702 5704 5704 5705 5705 5705 5704 5703 5702 5701
Wind_Speed
37 37 37 36 35 36 35 36 37 35 34 32 33 35 33 35 34 32 31 33 35 39 41 41 41 25 12 13 9 3 7 10 6 8 13 14 11 14 8 12 15 12 13 15 15
40 40 38 37 37 35 34 35 36 35 35 34 33 35 34 34 33 30 31 32 35 38 37 38 36 20 12 12 5 5 7 9 7 8 10 13 13 12 16 10 15 17 16 14 16
41 41 39 40 38 37 36 35 34 35 37 35 33 32 33 32 30 30 30 31 34 37 36 35 28 20 11 10 6 8 7 7 7 8 7 9 11 6 15 17 17 15 17 17 20
42 42 41 40 41 38 38 38 37 38 37 35 32 31 32 31 30 29 29 31 33 34 33 30 25 19 12 8 9 10 7 4 1 4 5 6 11 13 14 18 20 24 26 21 21
47 45 42 41 40 40 38 39 40 40 37 36 37 33 32 29 27 29 28 29 31 32 30 27 23 16 11 6 7 8 11 3 3 3 5 9 11 13 18 21 24 23 23 24 25
51 50 48 46 43 42 43 41 41 42 34 33 36 34 30 28 27 29 27 27 29 29 28 26 21 14 10 9 6 7 12 9 6 2 2 9 12 13 15 19 17 16 17 18 20
56 53 53 52 51 47 47 44 44 40 39 38 34 33 30 29 28 29 27 26 28 26 24 22 18 12 8 8 8 7 3 12 12 9 8 11 14 15 16 16 15 14 13 15 17
56 58 56 53 51 46 46 45 44 41 39 36 32 36 30 30 27 27 26 25 25 24 22 19 17 10 6 6 7 8 3 3 7 10 11 10 11 13 10 7 9 11 13 13 17
55 55 57 55 53 51 48 47 44 41 39 37 34 31 31 31 29 28 26 23 24 22 19 15 12 10 5 4 6 5 7 9 10 9 6 6 9 10 4 4 9 3 4 16 17
56 53 51 51 50 49 47 47 46 42 42 40 36 33 30 31 30 28 25 22 22 21 17 12 10 6 5 3 4 9 10 11 10 8 12 6 10 8 1 5 5 9 12 12 15
57 55 52 48 48 47 47 47 47 47 42 44 37 34 31 31 32 29 24 22 22 19 15 10 9 8 9 9 10 6 7 10 12 9 10 11 15 14 6 1 3 2 5 12 11
61 58 54 53 49 48 47 47 48 48 44 42 41 35 33 35 35 32 25 23 22 19 12 11 10 8 10 9 5 2 6 12 11 9 6 12 5 3 4 3 1 2 1 2 5
63 62 58 55 52 52 50 47 47 49 49 39 41 37 34 34 30 31 26 23 22 20 12 11 11 8 9 7 4 3 2 3 4 6 7 7 6 7 5 5 5 1 1 2 3
63 65 63 58 56 54 52 49 49 49 50 44 40 39 34 33 31 32 26 25 23 19 14 11 13 9 8 6 5 3 2 1 2 3 3 5 4 11 9 9 5 3 4 5 5
65 65 65 64 59 57 54 52 52 49 49 45 40 37 35 38 27 30 26 27 22 20 15 11 17 12 9 8 10 8 4 3 4 3 2 4 10 12 10 11 7 7 9 9 10
72 66 66 64 63 58 57 56 55 50 54 44 39 35 36 37 31 32 30 26 24 23 17 14 17 15 14 10 13 11 9 6 5 6 9 10 8 9 11 15 12 12 15 17 16
72 71 67 66 62 60 59 58 56 56 51 45 37 35 33 37 33 34 31 27 26 22 15 13 17 18 17 15 16 17 14 9 11 10 7 9 7 12 13 15 17 17 14 16 17
71 73 71 67 64 62 60 61 62 56 53 46 42 41 33 33 35 34 34 32 29 23 22 16 17 19 18 18 20 24 21 14 11 10 11 12 7 11 19 21 20 18 18 17 18
67 72 74 71 68 65 64 67 60 58 53 45 46 39 40 33 33 33 31 27 27 23 21 20 19 15 18 20 20 22 24 23 22 21 20 18 16 14 16 17 21 18 24 19 17
65 73 75 73 73 70 69 67 63 60 52 46 46 46 37 40 35 30 30 29 29 26 26 24 24 22 20 21 25 23 23 23 24 23 23 22 17 17 17 17 17 19 19 23 21
53 71 75 76 77 77 76 63 64 63 54 47 44 45 44 32 34 33 30 26 27 27 27 26 25 24 22 21 24 25 24 22 24 26 26 26 19 17 18 16 14 17 21 22 22
46 63 68 77 81 82 72 64 66 63 56 49 48 45 46 45 36 35 33 26 28 29 27 23 27 25 21 22 24 27 28 27 28 26 28 30 26 25 22 20 18 19 21 23 25
47 48 58 69 83 81 66 70 69 64 57 52 49 45 45 43 42 41 36 30 30 31 29 26 29 27 25 24 24 25 24 27 27 28 30 28 23 23 21 23 24 22 21 22 23
54 51 50 68 79 77 78 73 70 65 59 56 51 46 45 43 46 42 37 40 32 33 32 30 31 28 24 18 21 24 25 25 26 30 27 27 16 19 19 19 19 21 20 20 21
57 50 41 68 81 83 79 74 73 69 61 56 54 50 46 44 44 42 38 35 33 35 33 37 36 28 23 22 24 22 23 23 27 24 28 19 20 16 17 18 19 20 20 22 23
56 50 43 48 73 83 85 82 76 69 61 56 55 50 46 46 44 43 38 34 37 37 37 38 36 30 28 24 23 24 22 24 24 25 23 21 20 18 19 20 19 19 20 24 27
53 52 46 36 64 82 87 80 75 71 63 58 54 47 46 44 41 33 41 38 40 41 38 37 36 33 30 25 26 25 19 21 23 23 23 23 19 19 20 20 20 20 21 22 25
Wind_Direction
268 269 269 268 268 272 275 278 279 280 281 284 289 294 299 303 305 308 311 308 311 316 324 334 347 349 345 338 319 201 228 251 280 274 267 265 253 239 227 241 241 245 252 250 240
266 267 268 270 270 269 270 273 275 277 278 281 284 292 298 302 304 306 307 308 312 318 327 341 352 353 352 353 319 218 235 262 279 291 285 289 289 266 256 242 247 251 251 244 243
268 268 268 269 270 271 273 272 272 276 275 277 282 288 296 297 300 304 305 307 312 320 328 343 352 355 347 9 359 233 236 266 273 288 288 284 283 289 264 275 249 242 245 245 244
261 265 266 268 269 267 271 273 270 277 274 277 280 287 292 293 299 301 301 304 312 321 331 344 343 349 349 22 357 219 229 266 331 305 317 307 301 286 285 276 271 259 251 242 243
261 263 263 264 267 269 272 275 273 278 272 273 281 280 285 288 296 298 299 303 313 320 336 344 337 339 345 359 337 233 210 215 229 291 339 315 295 292 279 282 275 267 259 255 257
259 262 261 261 263 267 271 273 276 277 269 270 275 274 281 285 290 298 295 303 311 318 336 345 335 327 337 331 318 321 236 245 260 284 313 316 310 299 297 296 286 265 256 256 252
261 260 263 264 265 265 265 266 269 270 267 271 272 274 273 280 286 291 291 299 309 316 335 342 334 313 320 311 305 321 291 260 260 275 287 306 312 312 316 306 296 283 249 244 243
258 259 259 260 265 264 263 265 269 271 265 268 273 268 268 274 283 286 287 295 306 314 333 338 334 332 315 291 305 303 284 278 267 266 276 300 285 296 296 322 316 270 241 230 241
255 256 259 260 261 265 266 264 265 267 266 266 269 265 261 269 276 281 282 290 302 309 329 335 327 355 345 299 282 265 236 246 271 240 263 275 256 269 300 10 20 355 169 200 201
257 256 255 256 258 260 264 265 263 264 265 264 265 267 259 266 270 275 276 284 295 302 321 322 316 332 355 319 234 247 247 259 257 217 209 216 228 238 153 1 32 49 90 95 123
258 256 254 253 251 250 254 257 259 259 259 262 261 264 255 256 262 266 270 276 288 292 314 305 307 326 315 295 280 251 234 237 257 197 225 192 214 237 222 119 354 12 55 88 88
254 253 252 250 248 249 250 251 252 254 254 257 259 259 259 256 249 259 262 270 278 281 301 290 283 311 304 298 289 292 242 237 240 215 191 158 198 264 243 215 305 334 289 136 93
251 251 248 247 247 248 248 249 249 250 250 250 255 251 257 251 233 247 252 260 267 276 283 269 271 289 296 289 290 336 273 254 236 217 218 172 197 241 259 213 224 199 300 218 208
245 247 247 244 243 245 247 247 249 248 248 247 247 245 237 241 229 242 243 252 259 264 272 267 251 258 277 261 222 179 143 125 204 143 208 210 224 260 236 217 211 261 287 273 260
248 244 244 242 242 242 242 244 247 247 247 247 244 245 228 236 230 242 243 246 252 253 264 254 240 241 255 253 224 224 218 296 265 251 226 234 225 252 236 219 240 235 255 260 243
246 241 243 242 241 242 239 239 242 243 243 242 242 239 229 230 227 230 234 238 237 245 260 254 240 231 238 239 233 231 239 249 252 270 256 248 225 251 231 231 223 258 273 269 266
242 239 237 240 239 239 238 237 238 237 240 235 234 233 222 223 225 227 232 240 247 252 254 242 234 232 231 230 238 252 244 242 247 251 253 257 248 210 218 223 238 251 248 258 270
238 232 232 234 235 235 235 235 233 232 234 234 230 229 219 219 222 224 228 227 230 227 227 233 232 232 236 238 240 249 250 232 239 245 256 255 230 234 240 247 237 244 240 248 258
228 226 225 228 230 232 232 233 232 231 229 229 229 227 222 209 219 222 227 226 223 228 238 234 225 229 238 238 237 242 248 248 247 251 253 265 271 279 279 262 251 249 236 246 249
229 220 218 220 225 227 230 230 231 230 227 226 226 225 222 216 212 222 222 220 217 218 224 225 227 232 239 245 242 238 243 251 260 264 261 269 279 279 291 284 262 249 248 238 242
242 223 214 214 218 222 227 225 228 229 224 223 224 220 215 209 218 215 223 218 218 221 226 228 229 233 241 249 248 243 243 253 260 265 270 275 280 284 285 292 280 249 252 256 254
243 229 216 213 214 220 224 225 228 229 227 219 221 219 218 214 214 212 216 214 217 226 230 234 235 239 246 243 245 238 238 241 250 262 265 272 270 277 279 281 273 255 250 254 259
241 238 229 221 215 215 218 225 226 227 226 220 220 221 217 216 212 220 211 206 218 223 222 228 234 234 240 241 243 246 248 249 255 260 266 268 275 287 281 266 270 263 262 261 269
240 237 233 224 213 211 216 221 225 225 221 221 216 221 223 220 218 217 216 217 207 220 220 220 230 233 237 246 244 239 243 248 254 257 264 270 273 283 280 264 254 259 264 267 272
236 235 236 228 211 209 211 218 223 223 222 221 217 216 224 226 220 213 216 213 204 218 224 226 232 232 233 231 237 245 245 246 247 260 264 273 270 271 259 250 255 263 271 277 275
234 235 235 229 215 211 210 213 220 222 220 220 220 217 220 226 225 216 206 213 204 213 227 228 230 230 231 232 237 243 247 249 253 260 266 262 258 268 255 258 259 261 268 273 278
227 231 232 233 218 214 210 210 216 220 218 217 222 223 221 223 224 229 205 210 212 211 221 227 232 229 229 232 239 240 252 256 256 254 256 261 265 252 260 268 272 277 275 271 276